Weather History for Beaufort, SC

Change the Weather History Date:

Saturday, March 2, 2013

  Actual Average (KNBC) Record (KNBC)
Temperature  
Mean Temperature 44 °F -  
Max Temperature 51 °F 66 °F 84 °F (1951)
Min Temperature 37 °F 43 °F 22 °F (1980)
Degree Days  
Heating Degree Days 21    
Moisture  
Dew Point 30 °F    
Average Humidity 58    
Maximum Humidity 75    
Minimum Humidity 40    
Precipitation  
Precipitation 0.00 in - - ()
Sea Level Pressure  
Sea Level Pressure 29.93 in    
Wind  
Wind Speed 11 mph (West)    
Max Wind Speed 20 mph    
Max Gust Speed 28 mph    
Visibility 10 miles    
Events      
Averages and records for this station are not official NWS values.
T = Trace of Precipitation, MM = Missing Value Source: NWS Daily Summary

Daily Weather History Graph

Daily Weather History Graph

Search for Another Location

Airport:

Trip Planner

Search our weather history database for the weather conditions in past years. The results will help you decide how hot, cold, wet, or windy it might be!

Date:

Astronomy

Mar. 02, 2013 Rise Set
Actual Time 6:48 AM EST 6:21 PM EST
Civil Twilight 6:24 AM EST 6:45 PM EST
Nautical Twilight 5:55 AM EST 7:14 PM EST
Astronomical Twilight 5:27 AM EST 7:42 PM EST
Moon 11:37 PM EST (3/2) 9:35 AM EST (3/2)
Length of Visible Light 12h 21m
Length of Day
11h 32m
Waning Gibbous, 74% of the Moon is Illuminated
Mar 2
Waning Gibbous
Mar 4
Last Quarter
Mar 11
New
Mar 19
First Quarter
Mar 27
Full

Hourly Weather History & Observations

Time (EST) Temp. Windchill Dew Point Humidity Pressure Visibility Wind Dir Wind Speed Gust Speed Precip Events Conditions
12:15 AM 44.6 °F 39.2 °F 32.0 °F 61% 29.96 in 10.0 mi West 10.4 mph - N/A   Clear
12:35 AM 44.6 °F 39.2 °F 32.0 °F 61% 29.96 in 10.0 mi WNW 10.4 mph 19.6 mph N/A   Clear
12:55 AM 44.6 °F 39.2 °F 32.0 °F 61% 29.96 in 10.0 mi WNW 10.4 mph - N/A   Clear
1:15 AM 42.8 °F 37.5 °F 32.0 °F 66% 29.96 in 10.0 mi WNW 9.2 mph - N/A   Clear
1:35 AM 42.8 °F 37.5 °F 32.0 °F 66% 29.96 in 10.0 mi WNW 9.2 mph - N/A   Clear
1:55 AM 42.8 °F 38.6 °F 32.0 °F 66% 29.96 in 10.0 mi West 6.9 mph - N/A   Scattered Clouds
2:15 AM 42.8 °F 37.0 °F 30.2 °F 61% 29.95 in 10.0 mi West 10.4 mph - N/A   Mostly Cloudy
2:35 AM 42.8 °F 38.0 °F 32.0 °F 66% 29.94 in 10.0 mi West 8.1 mph - N/A   Mostly Cloudy
2:55 AM 41.0 °F 35.2 °F 30.2 °F 65% 29.94 in 10.0 mi West 9.2 mph - N/A   Scattered Clouds
3:15 AM 41.0 °F 35.2 °F 30.2 °F 65% 29.94 in 10.0 mi West 9.2 mph 16.1 mph N/A   Clear
3:35 AM 41.0 °F 35.8 °F 30.2 °F 65% 29.94 in 10.0 mi West 8.1 mph - N/A   Clear
3:55 AM 41.0 °F 35.2 °F 32.0 °F 70% 29.94 in 10.0 mi West 9.2 mph - N/A   Clear
4:15 AM 39.2 °F 33.0 °F 30.2 °F 70% 29.94 in 10.0 mi West 9.2 mph - N/A   Clear
4:35 AM 39.2 °F 33.6 °F 30.2 °F 70% 29.95 in 10.0 mi West 8.1 mph - N/A   Clear
4:55 AM 39.2 °F 33.0 °F 30.2 °F 70% 29.95 in 10.0 mi West 9.2 mph - N/A   Clear
5:15 AM 39.2 °F 33.6 °F 30.2 °F 70% 29.95 in 10.0 mi West 8.1 mph - N/A   Clear
5:35 AM 39.2 °F 33.6 °F 30.2 °F 70% 29.94 in 10.0 mi West 8.1 mph - N/A   Clear
5:55 AM 37.4 °F 32.1 °F 30.2 °F 75% 29.95 in 10.0 mi West 6.9 mph - N/A   Clear
6:15 AM 37.4 °F 31.4 °F 30.2 °F 75% 29.95 in 10.0 mi WSW 8.1 mph - N/A   Clear
6:35 AM 37.4 °F 32.1 °F 30.2 °F 75% 29.95 in 10.0 mi WSW 6.9 mph - N/A   Clear
7:15 AM 37.4 °F 30.8 °F 30.2 °F 75% 29.95 in 10.0 mi WSW 9.2 mph - N/A   Clear
7:35 AM 39.2 °F 33.0 °F 30.2 °F 70% 29.95 in 10.0 mi WSW 9.2 mph - N/A   Clear
7:55 AM 41.0 °F 35.8 °F 32.0 °F 70% 29.95 in 7.0 mi WSW 8.1 mph - N/A   Clear
8:15 AM 42.8 °F 37.5 °F 32.0 °F 66% 29.95 in 10.0 mi West 9.2 mph - N/A   Clear
8:35 AM 42.8 °F 35.8 °F 32.0 °F 66% 29.95 in 5.0 mi West 13.8 mph 18.4 mph N/A   Haze
8:55 AM 44.6 °F 38.1 °F 32.0 °F 61% 29.94 in 10.0 mi West 13.8 mph - N/A   Clear
9:15 AM 44.6 °F 39.2 °F 32.0 °F 61% 29.94 in 10.0 mi West 10.4 mph 19.6 mph N/A   Clear
9:35 AM 46.4 °F 40.1 °F 32.0 °F 57% 29.94 in 7.0 mi West 15.0 mph 20.7 mph N/A   Clear
9:55 AM 46.4 °F 41.1 °F 30.2 °F 53% 29.94 in 7.0 mi WSW 11.5 mph - N/A   Scattered Clouds
10:15 AM 46.4 °F 39.5 °F 30.2 °F 53% 29.93 in 10.0 mi WSW 17.3 mph - N/A   Scattered Clouds
10:35 AM 46.4 °F 40.1 °F 28.4 °F 50% 29.93 in 10.0 mi West 15.0 mph - N/A   Scattered Clouds
10:55 AM 48.2 °F - 28.4 °F 46% 29.93 in 7.0 mi WSW 15.0 mph 23.0 mph N/A   Scattered Clouds
11:15 AM 50.0 °F - 28.4 °F 43% 29.93 in 10.0 mi West 16.1 mph 23.0 mph N/A   Mostly Cloudy
11:35 AM 48.2 °F - 28.4 °F 46% 29.92 in 10.0 mi West 18.4 mph 21.9 mph N/A   Mostly Cloudy
12:15 PM 50.0 °F - 28.4 °F 43% 29.91 in 10.0 mi West 17.3 mph 25.3 mph N/A   Overcast
12:35 PM 50.0 °F - 26.6 °F 40% 29.91 in 10.0 mi West 19.6 mph 27.6 mph N/A   Overcast
12:55 PM 51.8 °F - 28.4 °F 41% 29.90 in 10.0 mi West 16.1 mph - N/A   Mostly Cloudy
1:15 PM 50.0 °F - 28.4 °F 43% 29.89 in 10.0 mi West 17.3 mph 24.2 mph N/A   Overcast
1:35 PM 48.2 °F - 28.4 °F 46% 29.89 in 10.0 mi West 18.4 mph 27.6 mph N/A   Overcast
1:55 PM 50.0 °F - 28.4 °F 43% 29.88 in 10.0 mi West 19.6 mph 24.2 mph N/A   Overcast
2:15 PM 50.0 °F - 28.4 °F 43% 29.88 in 10.0 mi West 17.3 mph 21.9 mph N/A   Overcast
2:35 PM 48.2 °F - 28.4 °F 46% 29.88 in 10.0 mi West 13.8 mph 20.7 mph N/A   Overcast
2:55 PM 48.2 °F - 28.4 °F 46% 29.89 in 7.0 mi West 19.6 mph 24.2 mph N/A   Overcast
3:15 PM 48.2 °F - 30.2 °F 50% 29.88 in 10.0 mi West 15.0 mph 20.7 mph N/A   Overcast
3:35 PM 46.4 °F 39.5 °F 30.2 °F 53% 29.89 in 10.0 mi West 17.3 mph 23.0 mph N/A   Overcast
3:55 PM 46.4 °F 41.1 °F 30.2 °F 53% 29.89 in 10.0 mi West 11.5 mph 17.3 mph N/A   Overcast
4:15 PM 46.4 °F 40.1 °F 30.2 °F 53% 29.89 in 10.0 mi WNW 15.0 mph - N/A   Overcast
4:35 PM 46.4 °F 40.7 °F 30.2 °F 53% 29.89 in 10.0 mi WNW 12.7 mph 18.4 mph N/A   Overcast
4:55 PM 46.4 °F 39.5 °F 30.2 °F 53% 29.90 in 10.0 mi WNW 17.3 mph - N/A   Overcast
5:15 PM 46.4 °F 41.9 °F 30.2 °F 53% 29.91 in 10.0 mi WNW 9.2 mph - N/A   Overcast
5:35 PM 46.4 °F 41.5 °F 30.2 °F 53% 29.91 in 10.0 mi WNW 10.4 mph - N/A   Overcast
5:55 PM 46.4 °F 41.9 °F 30.2 °F 53% 29.91 in 10.0 mi West 9.2 mph - N/A   Overcast
6:15 PM 46.4 °F 42.4 °F 30.2 °F 53% 29.92 in 10.0 mi West 8.1 mph - N/A   Overcast
6:35 PM 46.4 °F 42.4 °F 32.0 °F 57% 29.92 in 10.0 mi West 8.1 mph - N/A   Overcast
6:55 PM 44.6 °F 40.2 °F 32.0 °F 61% 29.93 in 10.0 mi West 8.1 mph - N/A   Overcast
7:15 PM 44.6 °F 40.2 °F 32.0 °F 61% 29.93 in 10.0 mi West 8.1 mph - N/A   Overcast
7:35 PM 44.6 °F 40.2 °F 32.0 °F 61% 29.94 in 10.0 mi West 8.1 mph - N/A   Overcast
7:55 PM 44.6 °F 40.7 °F 30.2 °F 57% 29.94 in 10.0 mi West 6.9 mph - N/A   Mostly Cloudy
8:35 PM 42.8 °F 37.0 °F 30.2 °F 61% 29.95 in 10.0 mi West 10.4 mph - N/A   Scattered Clouds
8:55 PM 42.8 °F 37.0 °F 30.2 °F 61% 29.95 in 10.0 mi West 10.4 mph - N/A   Clear
9:15 PM 42.8 °F 36.6 °F 30.2 °F 61% 29.96 in 10.0 mi WSW 11.5 mph 16.1 mph N/A   Scattered Clouds
9:35 PM 42.8 °F 36.2 °F 30.2 °F 61% 29.96 in 10.0 mi WSW 12.7 mph - N/A   Scattered Clouds
9:55 PM 42.8 °F 36.6 °F 30.2 °F 61% 29.96 in 10.0 mi West 11.5 mph - N/A   Clear
10:15 PM 42.8 °F 36.2 °F 30.2 °F 61% 29.96 in 10.0 mi West 12.7 mph 16.1 mph N/A   Clear
10:35 PM 42.8 °F 36.6 °F 30.2 °F 61% 29.96 in 10.0 mi West 11.5 mph 17.3 mph N/A   Clear
10:55 PM 42.8 °F 35.8 °F 28.4 °F 57% 29.96 in 10.0 mi West 13.8 mph 21.9 mph N/A   Clear
11:15 PM 42.8 °F 35.8 °F 28.4 °F 57% 29.96 in 10.0 mi West 13.8 mph 17.3 mph N/A   Mostly Cloudy
11:35 PM 42.8 °F 35.8 °F 26.6 °F 53% 29.96 in 10.0 mi West 13.8 mph - N/A   Overcast
11:55 PM 41.0 °F 33.5 °F 26.6 °F 57% 29.96 in 10.0 mi West 13.8 mph 20.7 mph N/A   Overcast